Location: Plainartige
(45.6866°N, 1.7993°E)
Time: 16:29:48
(UTC+00:00)

Tiros 1 - Pass Details

Date: 29 May 2022
Orbit: 629 x 663 km, 48.4° (Epoch: 05 July)

Event Time Altitude Azimuth Distance (km) Brightness Sun altitude
Exits shadow 02:07:57 - 275° (W) 2,372 9.8 -15.8°
Reaches altitude 10° 02:08:53 10° 277° (W) 2,013 9.4 -15.7°
Maximum altitude 02:13:29 61° 358° (N) 720 7.6 -15.3°
Drops below altitude 10° 02:18:07 10° 79° (E) 2,032 10.4 -14.8°
Sets 02:20:29 0° 83° (E) 2,947 11.2 -14.6°
